Location: Emblem
(62.4273°N, 6.4710°E)
Time: 00:37:17
(UTC+01:00)

Transit 2A Rocket - Pass Details

Date: 15 October 2024
Orbit: 584 x 906 km, 66.7° (Epoch: 05 November)

Event Time Altitude Azimuth Distance (km) Brightness Sun altitude
Rises 19:38:22 0° 235° (SW) 3,532 9.4 -10.0°
Reaches altitude 10° 19:40:54 10° 235° (SW) 2,591 8.6 -10.3°
Maximum altitude 19:47:00 89° 145° (SE) 898 5.3 -11.0°
Drops below altitude 10° 19:52:51 10° 59° (ENE) 2,492 7.2 -11.7°
Enters shadow 19:52:56 10° 59° (ENE) 2,527 7.2 -11.7°
